Regional Weather Roundup
Issued by NWS

Home | Current Version | Previous Version | Graphics & Text | Print | Product List | Glossary On
Versions: 1 2 3 4 5 6 7 8 9 10 11 12 13 14 15 16 17 18 19 20 21 22 23 24 25 26 27 28 29 30 31 32 33 34 35 36 37 38 39 40 41 42 43 44 45 46 47 48 49 50
000
ASUS45 KCYS 280510
RWRWY

WYOMING REGIONAL WEATHER ROUNDUP
NATIONAL WEATHER SERVICE CHEYENNE WY
1100 PM MDT FRI MAR 27 2015

NOTE:  "FAIR" INDICATES FEW OR NO CLOUDS BELOW 12,000 FEET
WITH NO SIGNIFICANT WEATHER AND/OR OBSTRUCTIONS TO VISIBILITY.

WYZ001-280600-
YELLOWSTONE NATIONAL PARK

CITY           SKY/WX    TMP DP  RH WIND       PRES   REMARKS
LK YELLOWSTONE   N/A     29  25  85 CALM      30.25S
W YELLOWSTONE  NOT AVBL

$$
WYZ002>013-054>058-071-098>099-280600-
NORTHERN WYOMING

CITY           SKY/WX    TMP DP  RH WIND       PRES   REMARKS
JACKSON        FAIR      36  32  87 N8        30.21S WCI  29
CODY           FAIR      61  28  29 W16G25    30.05F
GREYBULL       FAIR      53  30  41 E6        30.00S
WORLAND        FAIR      50  32  50 S10       30.02S
SHERIDAN       FAIR      58  28  32 W13       29.97S
BUFFALO        FAIR      49  28  44 W7        30.03S
GILLETTE       FAIR      44  33  65 NE3       30.00R
HULETT         FAIR      46  32  57 SE7       30.00S
NEWCASTLE      FAIR      43  30  61 CALM      30.00S

$$
WYZ014>020-022>026-101>103-280600-
CENTRAL WYOMING

CITY           SKY/WX    TMP DP  RH WIND       PRES   REMARKS
BIG PINEY      FAIR      40  27  59 CALM      30.26R
PINEDALE       FAIR      32  28  86 W5        30.26S WCI  27
DUBOIS         FAIR      39  28  65 W6        30.20F WCI  35
LANDER         FAIR      56  22  26 SW14      30.11F
RIVERTON       FAIR      57  28  33 NW17      30.11S
CASPER         FAIR      42  26  53 SW8       30.08F
DOUGLAS        FAIR      44  25  47 N3        30.07S

$$
WYZ021-027>030-104>119-280600-
SOUTHERN WYOMING

CITY           SKY/WX    TMP DP  RH WIND       PRES   REMARKS
EVANSTON       FAIR      46  25  43 S6        30.27S
KEMMERER       FAIR      41  30  65 N6        30.27F
ROCK SPRINGS   FAIR      46  24  42 SW7       30.23S
DIXON          FAIR      41  28  59 NE5       30.24S
RAWLINS        FAIR      47  21  35 W6        30.19R
SARATOGA       FAIR      45  23  42 W12       30.20F
LARAMIE        FAIR      42  24  49 W8        30.19F
CHEYENNE       FAIR      47  24  40 W14       30.13S
TORRINGTON     FAIR      46  27  47 NW9       30.02S
PINE BLUFFS    FAIR      37  28  70 W6        30.09S WCI  33

$$


USA.gov is the U.S. government's official web portal to all federal, state and local government web resources and services.